Regional Weather Roundup
Issued by NWS

Home | Current Version | Previous Version | Text Only | Print | Product List | Glossary Off
Versions: 1 2 3 4 5 6 7 8 9 10 11 12 13 14 15 16 17 18 19 20 21 22 23 24 25 26 27 28 29 30 31 32 33 34 35 36 37 38 39 40 41 42 43 44 45 46 47 48 49 50

000
ASUS44 KMEG 032210
RWRTN
TENNESSEE HOURLY STATE WEATHER ROUNDUP
NATIONAL WEATHER SERVICE MEMPHIS TN
500 PM CDT FRI JUL 03 2015

TNZ002-004-019-021-049-052-054-088>092-032300-
WEST TENNESSEE

CITY           SKY/WX    TMP DP  RH WIND       PRES   REMARKS
MEMPHIS INTL   CLOUDY    77  72  84 SW8       29.91S
NWS MEMPHIS      N/A     76 N/A N/A MISG        N/A
JACKSON        CLOUDY    76  71  85 SW12      29.89F
DYERSBURG        N/A    N/A N/A N/A MISG        N/A
PARIS          PTSUNNY   73  66  78 SW14      29.88R
LEXINGTON      PTSUNNY   73  70  88 SW10      29.89F
$$

TNZ008-025-027-028-033-062-065-066-032300-
NORTH MIDDLE TENNESSEE

CITY           SKY/WX    TMP DP  RH WIND       PRES   REMARKS
NASHVILLE      CLOUDY    77  69  76 W13G21    29.89F
CLARKSVILLE    CLOUDY    78  70  76 SW14G21   29.86S
SMYRNA         CLOUDY    78  69  73 W15       29.91S
COOKEVILLE     CLOUDY    75  72  88 SW8       29.91S
CROSSVILLE     CLOUDY    72  67  84 SW8       29.97R
$$

TNZ061-075-076-078-094-096-097-032300-
SOUTH MIDDLE TENNESSEE

CITY           SKY/WX    TMP DP  RH WIND       PRES   REMARKS
FAYETTEVILLE     N/A     72  64  78 SW10      29.96S
TULLAHOMA      MOSUNNY   73  64  73 W10       29.96S
WINCHESTER     SUNNY     75  66  73 W7        29.95S
MCMINNVILLE    SUNNY     79  70  73 W15       29.93S
COLUMBIA       PTSUNNY   75  68  78 SW7       29.91F
SHELBYVILLE    MOSUNNY   79  70  73 W13         N/A
$$

TNZ017-018-042-046-047-032300-
NORTHEAST TENNESSEE

CITY           SKY/WX    TMP DP  RH WIND       PRES   REMARKS
TRI CITIES     CLOUDY    72  69  90 SW9       29.93R
ELIZABETHTON   HVY RAIN  70  68  94 CALM      29.93S FOG
$$

TNZ012-013-036-069-073-074-032300-
CENTRAL EAST TENNESSEE

CITY           SKY/WX    TMP DP  RH WIND       PRES   REMARKS
KNOXVILLE      LGT RAIN  74  68  81 SW16      29.92S
OAK RIDGE      CLOUDY    77  68  73 SW8G22    29.92S
GATLINBURG     MOCLDY    77  66  69 SW9       29.91F
MORRISTOWN     PTCLDY    75  70  83 SW15      29.92S
$$

TNZ083-085-099-032300-
SOUTHEAST TENNESSEE

CITY           SKY/WX    TMP DP  RH WIND       PRES   REMARKS
CHATTANOOGA    PTSUNNY   80  65  59 SW12      29.94F
$$

SKY/WX REPORTED AS FAIR MEANS FEW OR NO CLOUDS BELOW
12 THOUSAND FEET.



USA.gov is the U.S. government's official web portal to all federal, state and local government web resources and services.